Regional Weather Roundup
Issued by NWS Albany, NY

Home | Current Version | Previous Version | Graphics & Text | Print | Product List | Glossary Off
Versions: 1 2 3 4 5 6 7 8 9 10 11 12 13 14 15 16 17 18 19 20 21 22 23 24 25 26 27 28 29 30 31 32 33 34 35 36 37 38 39 40 41 42 43 44 45 46 47 48 49 50

000
ASUS41 KALY 110610
RWRALY

NEW YORK STATE HOURLY WEATHER ROUNDUP
NATIONAL WEATHER SERVICE ALBANY NY
100 AM EST THU FEB 11 2016

NOTE: "FAIR" INDICATES FEW OR NO CLOUDS BELOW 12,000 FEET WITH NO
SIGNIFICANT WEATHER AND/OR NO OBSTRUCTIONS TO VISIBILITY.

NYZ032-033-038>043-046>054-057>066-NYZ062>081-110700-
EAST


CITY           SKY/WX    TMP DP  RH WIND       PRES   REMARKS
ALBANY         CLOUDY    27  12  53 NW9       29.70S WCI  18
GLENS FALLS    CLOUDY    27  14  58 NW5       29.67S WCI  22
POUGHKEEPSIE   CLOUDY    31  17  56 W13       29.71S WCI  21
MONTGOMERY     CLOUDY    27  15  61 W16G24    29.72R WCI  15
WHITE PLAINS   CLOUDY    30  18  60 W10G18    29.70S WCI  21
ISLIP          CLOUDY    30  18  60 W8        29.70F WCI  22
NEW YORK CITY  CLOUDY    32  15  49 W16G26    29.75R WCI  21
CENTRAL PARK   CLOUDY    30  14  51 W6G22     29.77R WCI  24
$$

NYZ005>009-017-018-044>046-055-056-110700-
CENTRAL


CITY           SKY/WX    TMP DP  RH WIND       PRES   REMARKS
FULTON         SNOW      21  17  84 W8        29.76R VSB 1/2 WCI  11
SYRACUSE       LGT SNOW  18  15  88 W18G29    29.76R BLWGSNOWWCI   2
ROME           LGT SNOW  20  18  92 W13       29.75R VSB 3/4 WCI   7
ELMIRA         PTCLDY    17   4  56 W12G17    29.79R WCI   4
BINGHAMTON     CLOUDY    15   4  61 W15G24    29.69S WCI   0
MONTICELLO     PTCLDY    19   5  53 W16G29    29.70R WCI   5
$$

NYZ026>034-041>043-110700-
NORTH


CITY           SKY/WX    TMP DP  RH WIND       PRES   REMARKS
WATERTOWN      CLOUDY    19   7  59 W17G23    29.74S WCI   4
FORT DRUM      NOT AVBL
MASSENA        FLURRIES  16   8  71 W12       29.72R WCI   3
SARANAC LAKE   LGT SNOW  16  13  88 CALM      29.55R FOG
PLATTSBURGH    CLOUDY    19  15  84 CALM      29.66S
$$

NYZ001>004-010>016-019>021-110700-
WEST


CITY           SKY/WX    TMP DP  RH WIND       PRES   REMARKS
NIAGARA FALLS  PTCLDY    15   5  64 W17       29.81F WCI  -1
BUFFALO        PTCLDY    14   5  67 W12G20    29.81S WCI   0
DUNKIRK        CLOUDY    17   4  56 W15G26    29.85S WCI   2
JAMESTOWN      CLOUDY    12   7  79 W9        29.76S WCI   0
WELLSVILLE     CLEAR     10   3  73 W8        29.71S WCI  -2
ROCHESTER      PTCLDY    16   7  67 W12       29.80S WCI   3
PENN YAN       CLOUDY    18   4  54 W15G23    29.77R WCI   4
$$

             KEY
       WCI = WIND CHILL INDEX
       VSB = VISIBILITY
       HX  = HEAT INDEX
$$



USA.gov is the U.S. government's official web portal to all federal, state and local government web resources and services.